Vorticity
11 11 9 8 7 9 10 11 9 9 9 9 5 10 4 5 4 5 7 5 6 5 4 9 9 11 11 9 10 2 -8 8 7 0 19 9 -3 1 1 3 10 6 -0 4 4
10 10 11 10 7 9 10 11 11 9 9 10 10 7 8 6 7 5 -2 9 4 5 2 7 10 12 12 9 8 2 -3 9 -5 8 5 21 5 -1 2 3 3 3 3 1 2
12 11 12 12 10 10 11 15 14 11 10 10 11 11 5 8 9 9 0 15 2 6 3 3 7 9 13 11 5 6 -2 -8 8 5 7 16 2 1 -2 11 -1 1 7 7 -1
11 10 11 10 10 11 10 14 17 15 11 11 12 13 10 6 1 39 16 5 5 8 4 4 5 6 9 10 8 7 -2 -10 4 7 11 8 8 7 7 2 9 3 -3 -2 2
9 12 10 9 10 10 10 9 13 15 15 11 13 16 13 7 2 -10 17 20 18 12 10 10 8 9 9 13 13 5 8 2 -5 2 7 10 -2 5 9 3 2 6 6 6 6
9 11 11 9 7 7 9 9 9 14 13 14 11 13 18 2 5 0 9 5 12 14 13 9 8 7 11 2 24 11 3 2 -8 -10 -2 -0 -0 -7 -3 9 5 4 3 4 3
8 10 11 9 9 8 7 9 8 16 13 14 12 13 16 13 3 9 -12 3 1 9 4 13 13 17 7 -1 1 32 6 25 -4 6 7 -2 6 2 -2 -2 1 2 2 3 4
8 9 9 10 10 11 10 9 9 10 15 16 14 12 17 13 10 7 17 -1 -5 -2 -17 -7 7 3 14 18 -16 23 13 -3 23 11 13 6 6 8 -1 -2 1 1 1 4 3
10 9 9 8 9 12 11 11 11 10 17 18 17 15 27 14 13 17 -7 18 11 -8 -7 3 10 7 -3 -0 16 6 5 25 8 4 -2 15 13 10 -2 5 8 13 12 2 -3
10 10 10 9 11 11 15 15 17 16 15 16 15 22 10 15 22 21 25 -4 15 25 17 7 1 10 9 -2 -1 -19 15 -7 11 28 6 -2 13 -1 -9 8 14 22 17 12 12
11 13 11 11 13 12 19 20 23 19 10 12 -9 18 -6 23 27 -5 32 17 -8 3 10 10 5 2 3 6 -3 0 -10 3 2 -3 -1 18 24 18 25 8 10 9 13 13 18
10 11 10 13 13 14 13 16 10 7 18 10 13 3 25 3 24 35 5 25 7 0 -1 -21 23 9 6 10 1 4 -10 12 -0 -1 10 21 6 4 13 25 14 8 3 6 9
8 12 15 13 19 10 13 13 8 8 5 8 31 15 22 7 -5 -1 25 19 16 1 -2 1 6 8 10 13 4 3 1 -1 -17 10 13 8 14 11 5 14 1 5 3 6 7
8 13 14 6 2 8 10 10 11 5 29 18 47 40 49 27 14 13 17 20 8 27 3 11 -12 10 12 6 7 5 9 0 9 -0 -3 13 6 6 10 17 5 2 4 3 -2
8 9 13 8 10 3 10 4 18 9 16 3 13 17 -1 50 25 -6 9 21 -0 2 24 9 18 -30 45 -5 9 7 -5 7 12 2 -1 -6 6 41 29 16 1 10 7 8 0
8 7 7 14 14 15 12 12 11 23 12 6 4 4 20 16 47 31 -19 9 20 16 24 19 6 53 -28 18 7 10 -4 31 17 21 29 5 -22 43 7 -3 9 5 -1 2 3
6 8 13 11 11 11 10 14 22 -10 3 34 8 1 -6 29 35 -1 45 -5 -28 -6 15 15 -6 13 20 11 16 21 14 3 18 18 -3 36 38 -35 13 33 26 15 16 24 21
22 4 12 18 4 13 16 19 2 0 29 -45 -30 4 -17 4 62 68 -14 40 25 0 35 -2 52 -13 25 7 -12 -15 -3 -37 6 8 38 41 22 -16 43 41 18 16 16 1 17
3 8 17 16 28 12 22 14 -25 40 -18 -16 -0 25 42 26 4 106 57 -10 -19 -7 -49 20 -2 102 -9 15 10 44 4 -9 -14 23 3 -5 37 -16 -36 -14 -23 24 10 5 14
13 8 18 12 5 11 25 -11 -5 23 -6 -5 1 -8 -10 -9 20 -1 49 71 15 -9 7 -15 21 12 93 12 12 -13 19 25 -22 5 5 19 24 -51 28 62 32 28 16 12 5
13 7 19 7 14 10 10 -3 14 17 43 -6 1 -13 -12 12 5 -4 5 13 34 37 7 -5 -1 3 42 12 -1 22 23 -9 22 -71 15 1 12 -2 25 12 2 7 15 14 -3
16 8 23 10 3 -10 11 8 16 21 6 -0 3 6 4 15 16 15 10 -17 -41 14 83 -8 -3 38 -20 35 10 13 -17 2 -24 24 -9 -15 18 6 51 25 4 10 2 20 12
11 10 8 10 12 20 5 4 4 -1 17 25 27 16 30 -5 -1 12 -2 50 -3 -17 -0 87 68 -12 70 48 48 0 11 14 -3 -0 10 -45 11 22 -48 -9 22 19 1 12 -3
9 4 -9 6 9 2 12 14 27 12 22 25 15 19 14 13 27 -2 9 13 -4 10 -3 -1 52 26 -42 23 5 20 -5 5 3 -11 14 3 4 -12 -14 45 17 21 23 7 -2
3 11 12 -12 -10 20 -4 -14 1 0 14 4 0 22 -4 18 15 29 10 27 19 6 27 61 -4 50 42 -1 60 17 19 8 -2 1 -14 4 8 -8 -10 6 -8 5 -21 13 14
6 6 -1 1 5 5 11 11 6 2 1 12 6 -9 8 -2 1 18 8 -13 5 29 32 -8 5 -1 50 -31 -18 28 5 8 16 11 11 -4 -6 23 20 -9 35 39 28 21 2
7 12 8 8 1 8 8 11 15 13 12 2 21 4 -6 5 3 10 13 10 5 12 6 13 23 5 121 26 -5 26 6 6 6 -2 1 4 4 -3 11 39 -5 -11 -7 4 4
Height
3100 3097 3094 3091 3089 3088 3088 3088 3088 3088 3088 3089 3090 3092 3093 3094 3095 3097 3100 3106 3103 3104 3105 3105 3105 3105 3105 3106 3108 3109 3110 3109 3113 3115 3117 3118 3120 3122 3123 3124 3124 3126 3127 3128 3130
3092 3090 3087 3084 3082 3080 3079 3079 3079 3078 3079 3080 3081 3082 3085 3085 3086 3088 3100 3096 3098 3098 3101 3101 3101 3102 3102 3103 3104 3105 3104 3106 3110 3112 3113 3115 3118 3120 3120 3120 3121 3123 3124 3125 3127
3084 3081 3077 3075 3072 3071 3071 3070 3070 3070 3069 3070 3071 3074 3075 3077 3076 3084 3086 3088 3091 3094 3096 3097 3096 3097 3098 3100 3100 3100 3099 3105 3108 3109 3110 3111 3115 3116 3117 3117 3118 3121 3122 3123 3124
3077 3073 3070 3067 3064 3063 3062 3062 3061 3060 3060 3060 3062 3064 3065 3067 3069 3077 3076 3081 3084 3087 3089 3090 3091 3091 3092 3093 3096 3096 3097 3102 3105 3106 3107 3109 3112 3114 3114 3116 3118 3118 3119 3120 3121
3070 3067 3062 3059 3057 3055 3054 3052 3052 3051 3051 3050 3051 3054 3054 3055 3052 3072 3070 3074 3076 3079 3081 3084 3085 3087 3088 3090 3092 3091 3095 3098 3102 3102 3103 3105 3106 3109 3111 3113 3114 3115 3116 3117 3118
3061 3059 3056 3052 3049 3048 3046 3044 3043 3043 3042 3041 3040 3041 3041 3038 3049 3066 3066 3065 3070 3072 3075 3076 3080 3084 3083 3085 3086 3089 3091 3094 3097 3099 3100 3100 3102 3102 3106 3108 3110 3111 3113 3113 3115
3055 3052 3049 3045 3042 3040 3036 3035 3034 3033 3032 3031 3029 3029 3027 3026 3041 3049 3055 3059 3062 3067 3069 3072 3076 3077 3081 3082 3083 3084 3086 3088 3088 3093 3094 3098 3094 3093 3102 3104 3104 3106 3108 3109 3111
3048 3044 3042 3038 3034 3030 3027 3024 3023 3022 3022 3021 3021 3017 3012 3025 3032 3041 3046 3052 3054 3059 3063 3068 3070 3071 3073 3077 3079 3079 3081 3079 3081 3086 3089 3092 3082 3091 3097 3098 3099 3100 3102 3103 3105
3043 3038 3034 3031 3027 3023 3019 3015 3014 3011 3012 3012 3011 3010 3008 3013 3018 3031 3036 3041 3049 3052 3055 3061 3063 3064 3068 3070 3073 3072 3070 3072 3076 3080 3084 3083 3079 3084 3090 3092 3092 3095 3096 3097 3099
3039 3033 3028 3024 3019 3015 3011 3007 3005 3003 3003 3003 3002 3004 3005 3005 3009 3016 3026 3033 3039 3044 3046 3051 3052 3053 3056 3059 3051 3060 3064 3069 3070 3074 3076 3076 3073 3078 3083 3085 3086 3087 3089 3090 3091
3032 3028 3024 3019 3013 3008 3005 3001 3001 2999 2994 2994 2991 2989 2992 2993 2996 3004 3013 3024 3029 3032 3033 3040 3041 3035 3039 3048 3055 3059 3061 3062 3065 3070 3071 3071 3071 3072 3077 3076 3078 3080 3081 3082 3084
3023 3019 3016 3012 3008 3004 3002 2998 2996 2993 2978 2983 2980 2976 2981 2987 2985 2988 3001 3007 3014 3018 3026 3032 3023 3030 3042 3046 3050 3055 3056 3056 3062 3064 3066 3066 3063 3064 3066 3066 3070 3072 3074 3076 3078
3017 3012 3008 3005 3005 3002 2998 2996 2994 2991 2980 2964 2972 2967 2970 2977 2974 2981 2990 2996 3001 3007 3014 3016 3010 3029 3033 3039 3043 3046 3047 3053 3057 3059 3060 3060 3054 3055 3058 3060 3062 3063 3067 3069 3071
3010 3007 3004 3001 3002 2999 2997 2992 2992 2990 2981 2961 2960 2958 2959 2965 2962 2977 2982 2988 2993 2995 3005 3009 3018 3020 3024 3028 3036 3037 3041 3049 3054 3058 3054 3057 3048 3046 3050 3052 3054 3057 3060 3062 3065
3004 3001 2997 2994 2993 2996 2994 2991 2989 2991 2985 2963 2958 2956 2954 2955 2962 2966 2975 2980 2983 2987 2996 2996 3001 3009 3014 3012 3027 3025 3040 3045 3050 3053 3053 3050 3049 3033 3041 3042 3046 3050 3053 3056 3059
2998 2997 2993 2991 2990 2988 2985 2986 2988 2991 2974 2960 2958 2954 2953 2952 2954 2964 2970 2974 2979 2985 2987 2992 2998 3004 3005 3017 3023 3031 3038 3043 3046 3048 3045 3038 3042 3025 3029 3033 3039 3043 3046 3049 3051
2991 2990 2988 2984 2984 2981 2980 2981 2987 2977 2965 2957 2955 2952 2951 2950 2949 2955 2960 2966 2967 2974 2976 2984 2990 2996 3003 3012 3019 3025 3032 3038 3043 3041 3027 3032 3032 3018 3023 3027 3032 3036 3038 3039 3041
2984 2983 2982 2979 2975 2975 2975 2978 2976 2964 2961 2957 2955 2950 2951 2950 2946 2948 2951 2946 2953 2960 2969 2973 2983 2984 2988 2994 3000 3007 3015 3020 3029 3030 3021 3026 3012 3008 3016 3023 3027 3029 3031 3032 3034
2976 2977 2974 2971 2970 2969 2970 2967 2961 2956 2958 2957 2953 2949 2948 2946 2947 2941 2945 2940 2945 2947 2957 2965 2970 2974 2981 2989 2996 3000 3005 3011 3017 3018 3019 3009 3007 3009 3012 3015 3019 3022 3023 3026 3029
2969 2967 2968 2966 2965 2964 2963 2958 2953 2952 2955 2954 2953 2952 2946 2945 2947 2945 2941 2941 2945 2950 2954 2959 2965 2966 2973 2984 2987 2989 2998 3008 3012 3016 3015 3000 3000 2999 3001 3004 3012 3014 3017 3022 3025
2963 2961 2962 2960 2960 2959 2955 2951 2949 2949 2951 2952 2949 2948 2944 2942 2944 2944 2944 2939 2940 2947 2953 2954 2958 2959 2969 2963 2971 2981 2987 2994 3000 3000 2998 2999 2990 2993 2999 3004 3008 3012 3015 3019 3022
2957 2957 2957 2956 2956 2953 2950 2949 2949 2944 2947 2944 2943 2944 2941 2941 2938 2940 2940 2939 2934 2934 2939 2940 2950 2951 2953 2959 2962 2967 2971 2980 2985 2990 2989 2988 2982 2989 2992 2998 3003 3007 3011 3015 3018
2948 2948 2951 2951 2947 2947 2947 2945 2943 2941 2941 2941 2939 2938 2938 2938 2936 2932 2933 2930 2931 2934 2936 2941 2941 2943 2945 2953 2957 2958 2965 2970 2976 2982 2981 2986 2973 2984 2990 2994 2998 3002 3005 3010 3013
2944 2942 2942 2943 2942 2941 2942 2940 2938 2938 2936 2936 2935 2935 2934 2932 2932 2928 2929 2932 2932 2926 2932 2934 2929 2925 2927 2934 2941 2948 2955 2962 2965 2966 2968 2971 2971 2975 2983 2987 2993 2997 3000 3004 3008
2936 2933 2935 2935 2935 2935 2935 2935 2934 2933 2933 2934 2931 2931 2930 2928 2925 2923 2924 2923 2926 2925 2926 2931 2925 2917 2922 2932 2936 2938 2942 2946 2956 2959 2962 2954 2957 2969 2977 2985 2990 2993 2995 2999 3003
2926 2928 2928 2928 2931 2931 2929 2927 2928 2930 2930 2928 2929 2927 2926 2924 2925 2920 2921 2919 2918 2919 2916 2919 2910 2912 2913 2922 2929 2928 2936 2943 2949 2951 2961 2957 2953 2962 2974 2979 2983 2986 2990 2993 2998
2918 2920 2921 2919 2922 2924 2922 2922 2922 2923 2923 2924 2924 2922 2921 2920 2918 2916 2915 2915 2913 2911 2915 2914 2916 2919 2904 2915 2923 2920 2921 2931 2939 2939 2941 2941 2934 2954 2963 2971 2977 2981 2984 2989 2993